W5TUX Weather Reports


time (UTC)temp
C
wind
direction
speed
KPH
gust
KPH
rain 1hr
cm
rain 24hr
cm
rain mn
cm
humidity
%
barometer
mb
20260505184230 28 219 4.8 4.8 0.00 0.00 0.00 65 1009.9
20260505183726 28 231 3.2 4.8 0.00 0.00 0.00 64 1010.0
20260505183224 28 208 4.8 6.4 0.00 0.00 0.00 67 1009.8
20260505182720 28 217 3.2 4.8 0.00 0.00 0.00 66 1010.0
20260505182217 28 223 6.4 6.4 0.00 0.00 0.00 66 1009.9
20260505181713 27 214 6.4 6.4 0.00 0.00 0.00 66 1010.2
20260505181211 27 237 9.7 12.9 0.00 0.00 0.00 66 1010.3
20260505180707 28 227 9.7 12.9 0.00 0.00 0.00 65 1010.2
20260505180204 28 256 4.8 4.8 0.00 0.00 0.00 66 1010.0
20260505175700 27 233 3.2 4.8 0.00 0.00 0.00 67 1009.9
20260505175157 27 217 4.8 6.4 0.00 0.00 0.00 67 1010.0
20260505174653 27 228 9.7 12.9 0.00 0.00 0.00 67 1010.2
20260505174149 27 224 9.7 11.3 0.00 0.00 0.00 68 1010.1
20260505173646 27 257 11.3 14.5 0.00 0.00 0.00 68 1010.1
20260505173143 26 218 11.3 16.1 0.00 0.00 0.00 69 1010.1
20260505172641 27 226 8.0 9.7 0.00 0.00 0.00 68 1010.1
20260505172138 26 233 6.4 6.4 0.00 0.00 0.00 69 1010.2
20260505171637 26 221 4.8 4.8 0.00 0.00 0.00 70 1010.0
20260505171135 27 253 8.0 9.7 0.00 0.00 0.00 70 1009.8
20260505170632 27 215 3.2 3.2 0.00 0.00 0.00 70 1010.3
20260505170128 26 260 6.4 6.4 0.00 0.00 0.00 69 1010.1
20260505165623 27 196 20.9 29.0 0.00 0.00 0.00 69 1010.1
20260505165120 26 248 4.8 6.4 0.00 0.00 0.00 70 1009.9
20260505164615 26 284 4.8 6.4 0.00 0.00 0.00 70 1010.2
20260505164113 26 237 4.8 9.7 0.00 0.00 0.00 71 1010.2
20260505163611 25 205 6.4 11.3 0.00 0.00 0.00 71 1010.1
20260505163108 25 206 12.9 16.1 0.00 0.00 0.00 72 1010.3
20260505162606 26 195 3.2 3.2 0.00 0.00 0.00 71 1010.3
20260505162103 26 259 4.8 4.8 0.00 0.00 0.00 70 1010.0
20260505161600 26 230 6.4 6.4 0.00 0.00 0.00 71 1010.1
20260505161058 26 219 3.2 4.8 0.00 0.00 0.00 71 1010.0
20260505160555 26 212 12.9 16.1 0.00 0.00 0.00 70 1009.9
20260505153032 25 213 14.5 25.7 0.00 0.00 0.00 74 1009.7
20260505152529 25 185 8.0 12.9 0.00 0.00 0.00 74 1009.7
20260505152024 24 202 9.7 11.3 0.00 0.00 0.00 76 1009.5
20260505151519 24 233 19.3 27.4 0.00 0.00 0.00 76 1009.9
20260505151017 24 215 16.1 17.7 0.00 0.00 0.00 76 1010.0
20260505150513 24 179 6.4 6.4 0.00 0.00 0.00 76 1009.9
20260505140438 23 205 3.2 3.2 0.00 0.00 0.00 80 1009.9
20260505124852 22 221 9.7 11.3 0.00 0.00 0.00 82 1009.7
20260505124349 22 224 3.2 4.8 0.00 0.00 0.00 82 1009.8
20260505123845 22 229 4.8 4.8 0.00 0.00 0.00 82 1009.5
20260505123342 22 154 3.2 3.2 0.00 0.00 0.00 81 1009.4
20260505122837 22 216 3.2 3.2 0.00 0.00 0.00 81 1009.4
20260505122335 22 210 6.4 6.4 0.00 0.00 0.00 82 1009.4
20260505121832 22 205 8.0 9.7 0.00 0.00 0.00 81 1009.3
20260505121329 22 191 9.7 14.5 0.00 0.00 0.00 82 1009.3
20260505120825 22 273 3.2 3.2 0.00 0.00 0.00 82 1009.0
20260505120321 22 192 3.2 3.2 0.00 0.00 0.00 82 1009.1
20260505115819 22 171 6.4 6.4 0.00 0.00 0.00 81 1008.9
20260505115317 22 222 11.3 14.5 0.00 0.00 0.00 82 1009.2
20260505114815 22 224 4.8 6.4 0.00 0.00 0.00 82 1009.1
20260505114311 22 213 6.4 11.3 0.00 0.00 0.00 82 1009.0
20260505113808 22 207 8.0 12.9 0.00 0.00 0.00 83 1009.2
20260505113304 22 232 8.0 11.3 0.00 0.00 0.00 82 1009.3
20260505112800 21 207 8.0 11.3 0.00 0.00 0.00 84 1009.0
20260505112258 21 207 3.2 3.2 0.00 0.00 0.00 84 1009.0
20260505111758 21 233 4.8 6.4 0.00 0.00 0.00 84 1008.9
20260505111254 21 225 6.4 6.4 0.00 0.00 0.00 84 1008.8
20260505110750 21 198 4.8 6.4 0.00 0.00 0.00 84 1009.0
20260505110248 21 208 4.8 4.8 0.00 0.00 0.00 84 1008.8
20260505101722 22 237 12.9 16.1 0.00 0.00 0.00 83 1008.7
20260505101218 22 199 3.2 4.8 0.00 0.00 0.00 82 1009.0
20260505100714 22 228 6.4 9.7 0.00 0.00 0.00 82 1008.9
20260505100211 22 222 6.4 11.3 0.00 0.00 0.00 82 1008.8
20260505095707 22 209 8.0 11.3 0.00 0.00 0.00 83 1008.9
20260505095205 22 213 17.7 25.7 0.00 0.00 0.00 83 1009.0
20260505094700 21 224 12.9 16.1 0.00 0.00 0.00 83 1009.0
20260505094157 21 198 4.8 4.8 0.00 0.00 0.00 83 1009.0
20260505093653 21 215 16.1 22.5 0.00 0.00 0.00 83 1008.9
20260505093151 21 209 9.7 12.9 0.00 0.00 0.00 83 1009.1
20260505092647 21 232 11.3 16.1 0.00 0.00 0.00 83 1009.1
20260505092146 21 221 8.0 11.3 0.00 0.00 0.00 84 1009.4
20260505091643 21 230 4.8 4.8 0.00 0.00 0.00 84 1009.1
20260505091141 21 171 6.4 12.9 0.00 0.00 0.00 84 1009.2
20260505090638 21 215 4.8 6.4 0.00 0.00 0.00 84 1009.2
20260505090137 21 201 4.8 6.4 0.00 0.00 0.00 84 1009.2
20260505085633 21 208 4.8 6.4 0.00 0.00 0.00 84 1009.2
20260505085132 21 208 11.3 17.7 0.00 0.00 0.00 84 1009.1
20260505084629 21 148 9.7 14.5 0.00 0.00 0.00 84 1009.2
20260505084127 21 198 3.2 3.2 0.00 0.00 0.00 84 1009.2
20260505083625 21 237 14.5 24.1 0.00 0.00 0.00 84 1009.3
20260505083121 21 231 6.4 9.7 0.00 0.00 0.00 84 1009.1
20260505082617 21 223 9.7 12.9 0.00 0.00 0.00 83 1009.1
20260505082114 21 203 6.4 9.7 0.00 0.00 0.00 83 1009.3
20260505081610 21 222 12.9 17.7 0.00 0.00 0.00 83 1009.1
20260505081108 21 179 9.7 16.1 0.00 0.00 0.00 83 1009.4
20260505080603 21 231 4.8 6.4 0.00 0.00 0.00 82 1009.4
20260505080100 21 211 12.9 16.1 0.00 0.00 0.00 82 1009.2
20260505075556 21 206 17.7 25.7 0.00 0.00 0.00 82 1009.4
20260505075053 21 191 8.0 11.3 0.00 0.00 0.00 82 1009.5
20260505074550 21 213 11.3 17.7 0.00 0.00 0.00 81 1009.6
20260505074047 22 203 12.9 20.9 0.00 0.00 0.00 81 1009.7
20260505073544 22 228 8.0 9.7 0.00 0.00 0.00 81 1009.6
20260505073043 22 224 9.7 11.3 0.00 0.00 0.00 81 1009.7
20260505072538 22 229 6.4 6.4 0.00 0.00 0.00 80 1009.9
20260505072035 22 238 9.7 11.3 0.00 0.00 0.00 80 1009.8
20260505071530 22 210 8.0 9.7 0.00 0.00 0.00 79 1010.1
20260505071029 22 221 11.3 14.5 0.00 0.00 0.00 79 1010.1
20260505070526 22 222 6.4 9.7 0.00 0.00 0.00 79 1010.2
20260505070022 22 223 8.0 9.7 0.00 0.00 0.00 78 1010.3
20260505065518 22 225 9.7 14.5 0.00 0.00 0.00 78 1010.1
20260505065014 22 226 8.0 11.3 0.00 0.00 0.00 78 1010.2
20260505064512 22 227 14.5 20.9 0.00 0.00 0.00 77 1010.4
20260505064010 22 155 8.0 11.3 0.00 0.00 0.00 77 1010.7
20260505063507 22 215 6.4 6.4 0.00 0.00 0.00 77 1010.3
20260505063008 22 216 6.4 9.7 0.00 0.00 0.00 77 1010.6
20260505062505 22 197 9.7 14.5 0.00 0.00 0.00 76 1010.6
20260505062002 22 216 14.5 20.9 0.00 0.00 0.00 76 1010.4
20260505061500 22 223 11.3 17.7 0.00 0.00 0.00 76 1010.6
20260505060957 22 177 9.7 11.3 0.00 0.00 0.00 76 1010.7
20260505060454 22 197 9.7 12.9 0.00 0.00 0.00 76 1010.4
20260505055950 22 215 9.7 11.3 0.00 0.00 0.00 75 1010.5
20260505055446 22 207 11.3 14.5 0.00 0.00 0.00 75 1010.5
20260505054943 22 215 9.7 16.1 0.00 0.00 0.00 75 1010.6
20260505054441 22 203 11.3 14.5 0.00 0.00 0.00 74 1010.7
20260505053939 22 226 3.2 4.8 0.00 0.00 0.00 74 1010.7
20260505053435 22 248 8.0 12.9 0.00 0.00 0.00 74 1010.7
20260505052932 22 221 8.0 11.3 0.00 0.00 0.00 74 1011.0
20260505052429 22 139 6.4 11.3 0.00 0.00 0.00 74 1011.0
20260505051926 22 228 14.5 17.7 0.00 0.00 0.00 73 1011.1
20260505051423 22 208 9.7 11.3 0.00 0.00 0.00 73 1011.1
20260505050921 22 229 9.7 11.3 0.00 0.00 0.00 73 1011.3
20260505050420 23 235 9.7 12.9 0.00 0.00 0.00 73 1011.3
20260505041347 23 191 9.7 14.5 0.00 0.00 0.00 71 1011.3
20260505040844 23 228 4.8 9.7 0.00 0.00 0.00 71 1011.3
20260505040342 23 227 4.8 6.4 0.00 0.00 0.00 70 1011.3
20260505035838 23 217 6.4 11.3 0.00 0.00 0.00 70 1011.3
20260505035334 23 176 9.7 12.9 0.00 0.00 0.00 71 1011.2
20260505034832 23 223 8.0 11.3 0.00 0.00 0.00 70 1011.0
20260505034328 23 173 9.7 12.9 0.00 0.00 0.00 70 1011.1
20260505033825 23 225 8.0 12.9 0.00 0.00 0.00 70 1011.3
20260505033322 23 218 9.7 14.5 0.00 0.00 0.00 70 1011.2
20260505032820 23 195 9.7 11.3 0.00 0.00 0.00 70 1011.2
20260505032316 23 257 6.4 9.7 0.00 0.00 0.00 70 1011.4
20260505031814 23 243 6.4 9.7 0.00 0.00 0.00 70 1011.3
20260505031310 23 146 8.0 12.9 0.00 0.00 0.00 70 1011.2
20260505030808 23 215 4.8 4.8 0.00 0.00 0.00 70 1011.3
20260505030303 23 169 4.8 6.4 0.00 0.00 0.00 70 1011.4
20260505025758 23 190 6.4 6.4 0.00 0.00 0.00 70 1011.5
20260505025256 23 190 4.8 6.4 0.00 0.00 0.00 69 1011.3
20260505024754 23 215 6.4 9.7 0.00 0.00 0.00 69 1011.3
20260505024252 23 221 8.0 9.7 0.00 0.00 0.00 68 1011.2
20260505023750 23 194 6.4 9.7 0.00 0.00 0.00 69 1011.3
20260505023246 23 187 8.0 9.7 0.00 0.00 0.00 68 1011.3
20260505022743 23 210 8.0 9.7 0.00 0.00 0.00 68 1011.2
20260505022240 23 210 8.0 9.7 0.00 0.00 0.00 68 1011.2
20260505021737 23 241 11.3 12.9 0.00 0.00 0.00 68 1011.3
20260505021234 23 203 3.2 4.8 0.00 0.00 0.00 67 1011.2
20260505020729 23 248 3.2 4.8 0.00 0.00 0.00 67 1011.3
20260505020225 23 216 6.4 9.7 0.00 0.00 0.00 67 1011.2
20260505015723 23 186 3.2 4.8 0.00 0.00 0.00 67 1011.2
20260505015219 24 216 6.4 9.7 0.00 0.00 0.00 67 1011.2
20260505014716 24 205 9.7 16.1 0.00 0.00 0.00 66 1011.2
20260505014214 24 189 8.0 12.9 0.00 0.00 0.00 66 1011.2
20260505013710 24 216 6.4 6.4 0.00 0.00 0.00 66 1011.2
20260505013207 24 228 3.2 4.8 0.00 0.00 0.00 66 1011.2
20260505012706 24 208 4.8 6.4 0.00 0.00 0.00 66 1011.2
20260505012203 24 226 8.0 11.3 0.00 0.00 0.00 65 1011.0
20260505011658 24 202 3.2 4.8 0.00 0.00 0.00 65 1011.1
20260505011155 24 208 4.8 6.4 0.00 0.00 0.00 65 1010.9
20260505010651 25 201 8.0 9.7 0.00 0.00 0.00 64 1011.3
20260505010148 25 205 4.8 6.4 0.00 0.00 0.00 64 1011.2
20260505005644 25 210 9.7 14.5 0.00 0.00 0.00 64 1011.0
20260505005141 25 218 12.9 16.1 0.00 0.00 0.00 63 1011.3
20260505004638 25 236 6.4 9.7 0.00 0.00 0.00 63 1011.0
20260505004135 25 241 11.3 17.7 0.00 0.00 0.00 62 1011.1
20260505003632 25 232 20.9 24.1 0.00 0.00 0.00 62 1011.0
20260505003129 25 222 11.3 14.5 0.00 0.00 0.00 62 1011.2
20260505002625 25 231 8.0 14.5 0.00 0.00 0.00 62 1011.0
20260505002124 25 207 11.3 14.5 0.00 0.00 0.00 62 1011.1
20260505001621 25 207 14.5 16.1 0.00 0.00 0.00 61 1011.2
20260505001118 25 245 24.1 30.6 0.00 0.00 0.00 61 1011.2
20260505000615 25 226 6.4 14.5 0.00 0.00 0.00 61 1011.3
20260505000113 25 217 19.3 25.7 0.00 0.00 0.00 61 1011.1
20260504235609 25 227 11.3 16.1 0.00 0.00 0.00 60 1011.3
20260504235106 25 216 9.7 14.5 0.00 0.00 0.00 60 1011.4
20260504234603 25 234 4.8 6.4 0.00 0.00 0.00 60 1011.4
20260504234100 25 224 9.7 14.5 0.00 0.00 0.00 60 1011.3
20260504233555 25 226 3.2 4.8 0.00 0.00 0.00 60 1011.3
20260504233052 25 218 6.4 9.7 0.00 0.00 0.00 59 1011.2
20260504232549 25 224 8.0 11.3 0.00 0.00 0.00 60 1011.1
20260504232047 25 238 14.5 20.9 0.00 0.00 0.00 59 1011.6
20260504231543 26 241 14.5 17.7 0.00 0.00 0.00 59 1011.5
20260504231039 26 187 12.9 25.7 0.00 0.00 0.00 58 1011.7
20260504230536 26 228 6.4 6.4 0.00 0.00 0.00 58 1011.6
20260504230035 26 198 8.0 11.3 0.00 0.00 0.00 58 1011.5
20260504225531 26 207 8.0 11.3 0.00 0.00 0.00 58 1012.0
20260504225029 26 216 6.4 9.7 0.00 0.00 0.00 57 1012.0
20260504224525 26 204 16.1 30.6 0.00 0.00 0.00 57 1011.9
20260504224022 26 231 4.8 4.8 0.00 0.00 0.00 58 1011.9
20260504223519 26 195 6.4 6.4 0.00 0.00 0.00 58 1011.7
20260504223015 27 221 12.9 12.9 0.00 0.00 0.00 56 1011.7
20260504222512 26 215 3.2 4.8 0.00 0.00 0.00 57 1011.3
20260504222009 26 201 6.4 6.4 0.00 0.00 0.00 57 1011.8
20260504221506 26 219 6.4 6.4 0.00 0.00 0.00 57 1011.7
20260504221003 26 226 14.5 16.1 0.00 0.00 0.00 57 1012.1
20260504220500 26 232 9.7 16.1 0.00 0.00 0.00 57 1012.1
20260504215956 26 190 9.7 14.5 0.00 0.00 0.00 57 1011.9
20260504215453 26 171 11.3 17.7 0.00 0.00 0.00 57 1012.1
20260504214950 26 201 17.7 33.8 0.00 0.00 0.00 56 1012.0
20260504214446 26 230 8.0 12.9 0.00 0.00 0.00 55 1012.3
20260504213943 27 220 9.7 12.9 0.00 0.00 0.00 56 1012.6
20260504213439 26 203 6.4 9.7 0.00 0.00 0.00 56 1012.6
20260504212937 26 225 6.4 9.7 0.00 0.00 0.00 57 1012.4
20260504212432 26 227 6.4 6.4 0.00 0.00 0.00 56 1012.6
20260504211930 26 216 9.7 12.9 0.00 0.00 0.00 55 1012.7
20260504211426 26 214 6.4 6.4 0.00 0.00 0.00 55 1012.8
20260504210924 26 218 12.9 16.1 0.00 0.00 0.00 55 1012.8
20260504210421 26 235 6.4 9.7 0.00 0.00 0.00 54 1012.7
20260504205918 26 204 17.7 22.5 0.00 0.00 0.00 53 1013.2
20260504205415 26 232 9.7 11.3 0.00 0.00 0.00 53 1013.3
20260504204913 26 215 4.8 4.8 0.00 0.00 0.00 54 1013.2
20260504204411 26 187 12.9 20.9 0.00 0.00 0.00 53 1013.4
20260504203911 26 188 11.3 20.9 0.00 0.00 0.00 53 1013.5
20260504203407 26 169 9.7 12.9 0.00 0.00 0.00 52 1013.5
20260504202903 26 227 6.4 9.7 0.00 0.00 0.00 53 1013.6
20260504202400 26 230 9.7 14.5 0.00 0.00 0.00 53 1013.8
20260504201856 26 198 11.3 12.9 0.00 0.00 0.00 53 1014.0
20260504201354 26 253 14.5 20.9 0.00 0.00 0.00 53 1014.0
20260504200851 26 218 8.0 11.3 0.00 0.00 0.00 53 1014.2
20260504200348 26 229 12.9 22.5 0.00 0.00 0.00 52 1014.2
20260504195845 26 230 11.3 16.1 0.00 0.00 0.00 52 1014.3
20260504195340 26 212 9.7 12.9 0.00 0.00 0.00 52 1014.4
20260504194837 26 219 9.7 12.9 0.00 0.00 0.00 53 1014.5
20260504194333 26 209 17.7 25.7 0.00 0.00 0.00 51 1014.6
20260504193829 26 208 14.5 22.5 0.00 0.00 0.00 52 1014.5
20260504193327 26 200 9.7 16.1 0.00 0.00 0.00 53 1014.5
20260504192825 26 242 8.0 9.7 0.00 0.00 0.00 51 1014.7
20260504192323 25 220 9.7 12.9 0.00 0.00 0.00 52 1014.8
20260504191821 26 232 9.7 14.5 0.00 0.00 0.00 52 1014.8
20260504191318 26 213 11.3 14.5 0.00 0.00 0.00 51 1015.1
20260504190814 26 216 8.0 11.3 0.00 0.00 0.00 50 1015.2
20260504190310 26 233 16.1 25.7 0.00 0.00 0.00 50 1015.2
20260504185807 26 214 17.7 27.4 0.00 0.00 0.00 48 1015.3
20260504185304 26 223 19.3 27.4 0.00 0.00 0.00 49 1015.3
20260504184800 26 224 6.4 6.4 0.00 0.00 0.00 49 1015.4